User: anonymous   Login
Location: Unspecified
(0.0000°N, 0.0000°E)
Time: 12:01:57
(UTC+00:00)
Language:

BUGSAT 1 - Orbit

View from above orbital plane
View from above orbital plane
View from above satellite
View from above satellite

Ground track
Ground track

The orbit data is extracted from the following two-line orbital elements,

1 40014U 14033E   21016.15822483  .00000897  00000-0  85794-4 0  9994
2 40014  98.0933 350.4824 0030320 311.0730  48.7871 14.95624319358805
Epoch (UTC): 16 January 2021 03:47:50
Eccentricity: 0.0030320
inclination: 98.0933°
perigee height: 559 km
apogee height: 601 km
right ascension of ascending node: 350.4824°
argument of perigee: 311.0730°
revolutions per day: 14.95624319
mean anomaly at epoch: 48.7871°
orbit number at epoch: 35880

The dashed part of the orbit path shows where the satellite is in the earth's shadow,  

DLR